sat.trackr.live / text

‹ back to catalog

STARLINK-33913

NORAD 65215 · 2025-176T

PAYLOAD ACTIVE UNKNOWN

§ Identity

Operator
Country
US
Launch date
2025-08-14
Launch site
AFETR
Launch vehicle
Mass (kg)
RCS (m²)

Purposes: comms

External: N2YO · Heavens-Above · Gunter

§ Orbital elements

Epoch: 2026-05-24T18:02:46.689792Z

Period
93.85 min
Inclination
53.1583°
Eccentricity
0.0001146
Mean motion
15.34399516 rev/d
Perigee alt
461.9 km
Apogee alt
463.5 km
Semi-major
6,840.8 km
B*
3.2191e-4
RAAN
161.0059°
Arg perigee
80.9457°
Mean anomaly
279.1675°
Rev number
4,474

§ Raw data

STARLINK-339131 65215U 25176T   26144.75192928  .00010515  00000+0  32191-3 0  99902 65215  53.1583 161.0059 0001146  80.9457 279.1675 15.34399516 44745

JSON: /api/v1/satellites/65215 · /tle

For live sub-satellite position, see the globe view (requires WebGL).

§ Visibility from observer

Set your observer location to see the next 7 days of passes ≥ 10°. The values pass through the URL so the page stays shareable.

No JS? Fill the form by hand. The geolocation button needs JavaScript.